FW0403 Weather Reports


Display with metric or nautical units.
time (UTC)temp
F
wind
direction
speed
MPH
gust
MPH
rain 1hr
in
rain 24hr
in
rain mn
in
humidity
%
barometer
mb
20220116181241 52 279 9.0 16.0 0.00 0.00 0.00 60 1020.1
20220116180740 51 293 9.0 19.0 0.00 0.00 0.00 63 1020.1
20220116180245 51 302 8.0 19.0 0.00 0.00 0.00 63 1020.2
20220116175731 51 346 9.0 19.0 0.00 0.00 0.00 63 1020.2
20220116175212 50 282 8.0 19.0 0.00 0.00 0.00 62 1020.2
20220116174710 50 279 8.0 17.0 0.00 0.00 0.00 64 1020.3
20220116174212 50 282 8.0 17.0 0.00 0.00 0.00 64 1020.4
20220116173657 49 278 9.0 17.0 0.00 0.00 0.00 64 1020.4
20220116173153 49 276 8.0 17.0 0.00 0.00 0.00 63 1020.5
20220116172659 48 280 7.0 16.0 0.00 0.00 0.00 65 1020.7
20220116172150 48 262 7.0 16.0 0.00 0.00 0.00 64 1020.7
20220116171636 47 296 8.0 16.0 0.00 0.00 0.00 66 1020.7
20220116171114 47 262 9.0 15.0 0.00 0.00 0.00 65 1020.7
20220116170607 47 292 9.0 15.0 0.00 0.00 0.00 66 1020.9
20220116170106 47 265 9.0 15.0 0.00 0.00 0.00 66 1021.1
20220116165553 47 259 7.0 15.0 0.00 0.00 0.00 66 1021.2
20220116165042 46 270 6.0 13.0 0.00 0.00 0.00 66 1021.3
20220116164547 46 280 7.0 14.0 0.00 0.00 0.00 67 1021.4
20220116164049 45 298 6.0 14.0 0.00 0.00 0.00 67 1021.5
20220116163534 45 278 6.0 14.0 0.00 0.00 0.00 67 1021.5
20220116163031 45 292 8.0 14.0 0.00 0.00 0.00 66 1021.6
20220116162538 44 290 7.0 14.0 0.00 0.00 0.00 67 1021.7
20220116162035 44 273 6.0 14.0 0.00 0.00 0.00 67 1021.5
20220116161536 44 269 6.0 15.0 0.00 0.00 0.00 67 1021.6
20220116161018 44 284 6.0 15.0 0.00 0.00 0.00 68 1021.6
20220116160456 43 302 7.0 15.0 0.00 0.00 0.00 69 1021.7
20220116155936 43 289 8.0 15.0 0.00 0.00 0.00 68 1021.7
20220116155416 43 294 7.0 15.0 0.00 0.00 0.00 69 1021.7
20220116154908 43 294 7.0 15.0 0.00 0.00 0.00 70 1021.8
20220116154347 42 296 5.0 14.0 0.00 0.00 0.00 69 1021.9
20220116153851 42 324 5.0 14.0 0.00 0.00 0.00 71 1021.9
20220116153351 42 219 7.0 14.0 0.00 0.00 0.00 70 1021.8
20220116152833 41 295 6.0 14.0 0.00 0.00 0.00 70 1021.7
20220116152318 41 292 4.0 11.0 0.00 0.00 0.00 71 1021.5
20220116151802 41 329 5.0 13.0 0.00 0.00 0.00 72 1021.7
20220116151307 40 295 6.0 13.0 0.00 0.00 0.00 72 1021.8
20220116150805 40 279 6.0 13.0 0.00 0.00 0.00 72 1021.7
20220116150249 40 281 6.0 13.0 0.00 0.00 0.00 73 1021.7
20220116145733 39 340 6.0 17.0 0.00 0.00 0.00 74 1021.8
20220116145238 39 315 7.0 17.0 0.00 0.00 0.00 74 1021.8
20220116144720 39 271 7.0 17.0 0.00 0.00 0.00 74 1021.8
20220116144222 39 326 6.0 17.0 0.00 0.00 0.00 75 1021.8
20220116143722 39 329 6.0 17.0 0.00 0.00 0.00 76 1021.8
20220116143225 38 269 5.0 17.0 0.00 0.00 0.00 76 1021.5
20220116142706 38 294 5.0 14.0 0.00 0.00 0.00 76 1021.4
20220116142147 38 294 5.0 14.0 0.00 0.00 0.00 76 1021.3
20220116141625 38 294 5.0 16.0 0.00 0.00 0.00 76 1021.4
20220116141118 38 291 5.0 16.0 0.00 0.00 0.00 77 1021.4
20220116140601 38 279 7.0 16.0 0.00 0.00 0.00 77 1021.5
20220116140043 38 327 7.0 16.0 0.00 0.00 0.00 77 1021.5
20220116135545 38 293 6.0 15.0 0.00 0.00 0.00 77 1021.6
20220116135039 37 286 5.0 13.0 0.00 0.00 0.00 77 1021.6
20220116134535 37 284 5.0 12.0 0.00 0.00 0.00 77 1021.5
20220116134030 37 292 5.0 12.0 0.00 0.00 0.00 77 1021.4
20220116133527 37 295 4.0 11.0 0.00 0.00 0.00 77 1021.7
20220116133014 37 307 5.0 14.0 0.00 0.00 0.00 77 1021.7
20220116132505 37 287 5.0 14.0 0.00 0.00 0.00 76 1021.6
20220116131954 37 278 5.0 14.0 0.00 0.00 0.00 76 1021.5
20220116131442 37 310 5.0 14.0 0.00 0.00 0.00 76 1021.5
20220116130926 37 334 5.0 14.0 0.00 0.00 0.00 76 1021.4
20220116130412 37 331 5.0 14.0 0.00 0.00 0.00 76 1021.3
20220116125916 37 292 5.0 13.0 0.00 0.00 0.00 76 1021.2
20220116125358 37 304 4.0 13.0 0.00 0.00 0.00 76 1021.1
20220116124843 37 290 4.0 12.0 0.00 0.00 0.00 76 1020.9
20220116124325 37 279 4.0 12.0 0.00 0.00 0.00 76 1020.9
20220116123809 37 298 4.0 12.0 0.00 0.00 0.00 76 1020.9
20220116123247 37 287 4.0 12.0 0.00 0.00 0.00 76 1020.8
20220116122752 37 302 4.0 13.0 0.00 0.00 0.00 75 1020.7
20220116122243 37 289 5.0 13.0 0.00 0.00 0.00 75 1020.6
20220116121737 37 282 5.0 13.0 0.00 0.00 0.00 75 1020.6
20220116121223 38 290 4.0 13.0 0.00 0.00 0.00 75 1020.4
20220116120724 38 313 5.0 12.0 0.00 0.00 0.00 74 1020.5
20220116120202 38 279 5.0 14.0 0.00 0.00 0.00 74 1020.4
20220116115650 38 300 6.0 14.0 0.00 0.00 0.00 74 1020.4
20220116115154 38 275 7.0 14.0 0.00 0.00 0.00 74 1020.1
20220116114700 38 280 7.0 14.0 0.00 0.00 0.00 74 1020.1
20220116114149 38 302 6.0 13.0 0.00 0.00 0.00 74 1020.1
20220116113652 38 317 6.0 13.0 0.00 0.00 0.00 73 1020.1
20220116113153 38 280 7.0 15.0 0.00 0.00 0.00 74 1020.3
20220116112646 38 266 7.0 15.0 0.00 0.00 0.00 74 1020.3
20220116112138 38 264 6.0 15.0 0.00 0.00 0.00 73 1020.4
20220116111618 38 262 7.0 15.0 0.00 0.00 0.00 73 1020.3
20220116111118 38 296 8.0 10.0 0.00 0.00 0.00 74 1020.3
20220116110733 38 280 8.0 16.0 0.00 0.00 0.00 73 1020.3
20220116110218 38 292 8.0 16.0 0.00 0.00 0.00 73 1020.2
20220116105722 38 277 9.0 16.0 0.00 0.00 0.00 73 1020.2
20220116105229 38 280 9.0 16.0 0.00 0.00 0.00 72 1020.3
20220116104725 38 305 8.0 16.0 0.00 0.00 0.00 72 1020.3
20220116104211 38 294 7.0 15.0 0.00 0.00 0.00 72 1020.2
20220116103656 38 293 6.0 12.0 0.00 0.00 0.00 72 1020.1
20220116103150 38 267 0.0 12.0 0.00 0.00 0.00 71 1020.0
20220116102644 38 267 6.0 12.0 0.00 0.00 0.00 71 1020.3
20220116102143 38 300 6.0 12.0 0.00 0.00 0.00 71 1020.4
20220116101647 38 275 5.0 12.0 0.00 0.00 0.00 70 1020.6
20220116101139 39 311 6.0 16.0 0.00 0.00 0.00 69 1020.6
20220116100644 39 259 8.0 16.0 0.00 0.00 0.00 69 1020.5
20220116100135 39 257 8.0 18.0 0.00 0.00 0.00 69 1020.7
20220116095614 39 304 7.0 18.0 0.00 0.00 0.00 69 1020.6
20220116095055 39 321 7.0 18.0 0.00 0.00 0.00 68 1020.7
20220116094547 39 284 7.0 18.0 0.00 0.00 0.00 68 1020.6
20220116094040 39 307 6.0 17.0 0.00 0.00 0.00 68 1020.6
20220116093532 39 317 5.0 11.0 0.00 0.00 0.00 68 1020.6
20220116093017 39 283 5.0 15.0 0.00 0.00 0.00 67 1020.8
20220116092457 39 248 5.0 15.0 0.00 0.00 0.00 67 1020.9
20220116091940 39 329 5.0 15.0 0.00 0.00 0.00 67 1020.7
20220116091430 39 269 5.0 15.0 0.00 0.00 0.00 67 1020.8
20220116090931 39 289 6.0 14.0 0.00 0.00 0.00 66 1020.7
20220116090414 39 329 7.0 14.0 0.00 0.00 0.00 65 1020.7
20220116085901 39 269 5.0 14.0 0.00 0.00 0.00 66 1020.8
20220116085359 39 301 5.0 16.0 0.00 0.00 0.00 66 1020.9
20220116084854 39 313 5.0 16.0 0.00 0.00 0.00 66 1021.0
20220116084357 39 304 6.0 19.0 0.00 0.00 0.00 66 1020.9
20220116083855 39 277 6.0 19.0 0.00 0.00 0.00 65 1020.9
20220116083346 39 296 6.0 19.0 0.00 0.00 0.00 66 1020.8
20220116082849 39 298 6.0 19.0 0.00 0.00 0.00 65 1020.7
20220116082356 40 267 5.0 17.0 0.00 0.00 0.00 65 1020.6
20220116081858 40 340 6.0 17.0 0.00 0.00 0.00 64 1020.4
20220116081400 40 327 7.0 17.0 0.00 0.00 0.00 65 1020.5
20220116080849 40 298 8.0 18.0 0.00 0.00 0.00 65 1020.3
20220116080348 40 317 8.0 18.0 0.00 0.00 0.00 64 1020.4
20220116075838 40 255 8.0 21.0 0.00 0.00 0.00 64 1020.4
20220116075343 40 294 9.0 21.0 0.00 0.00 0.00 64 1020.1
20220116074832 40 280 10.0 21.0 0.00 0.00 0.00 64 1020.3
20220116074329 40 302 10.0 21.0 0.00 0.00 0.00 64 1020.2
20220116073828 40 291 9.0 18.0 0.00 0.00 0.00 64 1020.5
20220116073325 40 323 8.0 18.0 0.00 0.00 0.00 63 1020.0
20220116072829 40 330 8.0 18.0 0.00 0.00 0.00 63 1019.7
20220116072329 40 336 7.0 20.0 0.00 0.00 0.00 63 1019.1
20220116071815 40 289 8.0 20.0 0.00 0.00 0.00 64 1019.1
20220116071309 40 261 8.0 20.0 0.00 0.00 0.00 62 1019.1
20220116070814 40 275 8.0 20.0 0.00 0.00 0.00 62 1019.7
20220116070307 40 307 9.0 21.0 0.00 0.00 0.00 63 1020.8
20220116065806 40 333 9.0 21.0 0.00 0.00 0.00 62 1020.7
20220116065245 40 300 9.0 22.0 0.00 0.00 0.00 62 1020.6
20220116064743 41 7 9.0 22.0 0.00 0.00 0.00 62 1020.6
20220116064240 41 296 9.0 23.0 0.00 0.00 0.00 62 1020.4
20220116063729 41 336 8.0 23.0 0.00 0.00 0.00 61 1020.4
20220116063228 41 316 8.0 23.0 0.00 0.00 0.00 62 1020.5
20220116062718 41 281 8.0 23.0 0.00 0.00 0.00 61 1020.6
20220116062159 41 315 9.0 19.0 0.00 0.00 0.00 61 1020.6
20220116061638 41 323 8.0 23.0 0.00 0.00 0.00 61 1020.6
20220116061129 41 344 7.0 23.0 0.00 0.00 0.00 61 1020.8
20220116060607 41 288 8.0 23.0 0.00 0.00 0.00 62 1020.7
20220116060054 42 323 8.0 23.0 0.00 0.00 0.00 60 1020.7
20220116055549 42 25 9.0 24.0 0.00 0.00 0.00 61 1020.6
20220116055035 42 258 11.0 24.0 0.00 0.00 0.00 59 1020.5
20220116054539 42 275 11.0 24.0 0.00 0.00 0.00 59 1020.4
20220116054040 42 286 10.0 24.0 0.00 0.00 0.00 59 1020.4
20220116053522 42 337 11.0 22.0 0.00 0.00 0.00 59 1020.4
20220116053027 42 272 10.0 20.0 0.00 0.00 0.00 59 1020.4
20220116052529 42 267 8.0 22.0 0.00 0.00 0.00 57 1020.2
20220116052008 43 265 8.0 22.0 0.00 0.00 0.00 60 1020.5
20220116051513 43 290 9.0 22.0 0.00 0.00 0.00 57 1020.6
20220116051017 43 278 8.0 22.0 0.00 0.00 0.00 59 1020.6
20220116050514 43 292 9.0 19.0 0.00 0.00 0.00 59 1020.7
20220116050006 43 271 10.0 19.0 0.00 0.00 0.00 57 1020.6
20220116045447 43 357 9.0 22.0 0.00 0.00 0.00 57 1020.5
20220116044948 43 294 9.0 22.0 0.00 0.00 0.00 58 1020.4
20220116044445 43 289 10.0 25.0 0.00 0.00 0.00 57 1020.3
20220116043936 44 272 10.0 25.0 0.00 0.00 0.00 57 1020.4
20220116043436 44 278 10.0 25.0 0.00 0.00 0.00 56 1020.4
20220116042939 44 322 8.0 25.0 0.00 0.00 0.00 56 1020.5
20220116042428 44 289 8.0 18.0 0.00 0.00 0.00 57 1020.5
20220116041925 44 289 8.0 18.0 0.00 0.00 0.00 56 1020.5
20220116041430 44 278 8.0 22.0 0.00 0.00 0.00 56 1020.4
20220116040931 44 281 8.0 22.0 0.00 0.00 0.00 55 1020.5
20220116040434 45 290 9.0 22.0 0.00 0.00 0.00 57 1020.5
20220116035915 45 320 10.0 22.0 0.00 0.00 0.00 55 1020.5
20220116035419 45 291 9.0 21.0 0.00 0.00 0.00 56 1020.4
20220116034908 45 279 9.0 21.0 0.00 0.00 0.00 54 1020.5
20220116034405 45 293 10.0 23.0 0.00 0.00 0.00 53 1020.3
20220116033855 45 248 9.0 23.0 0.00 0.00 0.00 53 1020.3
20220116033344 45 273 9.0 24.0 0.00 0.00 0.00 54 1020.3
20220116032840 45 302 9.0 24.0 0.00 0.00 0.00 52 1020.3
20220116032319 45 311 10.0 24.0 0.00 0.00 0.00 53 1020.4
20220116031803 45 277 9.0 24.0 0.00 0.00 0.00 53 1020.3
20220116031254 45 328 9.0 23.0 0.00 0.00 0.00 52 1020.3
20220116030735 46 319 10.0 23.0 0.00 0.00 0.00 54 1020.3
20220116030216 46 271 11.0 24.0 0.00 0.00 0.00 53 1020.5
20220116025713 46 285 10.0 24.0 0.00 0.00 0.00 53 1020.4
20220116025201 46 288 11.0 28.0 0.00 0.00 0.00 52 1020.6
20220116024708 46 276 10.0 28.0 0.00 0.00 0.00 52 1020.5
20220116024155 46 290 11.0 28.0 0.00 0.00 0.00 52 1020.5
20220116023654 46 308 11.0 28.0 0.00 0.00 0.00 51 1020.4
20220116023147 46 306 11.0 27.0 0.00 0.00 0.00 51 1020.4
20220116022631 46 310 10.0 25.0 0.00 0.00 0.00 52 1020.4
20220116022121 46 283 10.0 25.0 0.00 0.00 0.00 52 1020.3
20220116021601 47 298 11.0 25.0 0.00 0.00 0.00 52 1020.2
20220116021045 47 279 10.0 25.0 0.00 0.00 0.00 51 1020.1
20220116020525 47 284 9.0 25.0 0.00 0.00 0.00 51 1020.0
20220116020024 47 290 7.0 23.0 0.00 0.00 0.00 51 1019.9
20220116015529 47 274 8.0 23.0 0.00 0.00 0.00 51 1020.0
20220116015034 47 292 9.0 23.0 0.00 0.00 0.00 50 1020.0
20220116014528 47 300 9.0 21.0 0.00 0.00 0.00 51 1019.8
20220116014031 47 264 9.0 21.0 0.00 0.00 0.00 50 1019.8
20220116013526 47 291 8.0 21.0 0.00 0.00 0.00 49 1019.6
20220116013020 47 308 7.0 18.0 0.00 0.00 0.00 51 1019.7
20220116012514 48 321 9.0 28.0 0.00 0.00 0.00 49 1019.7
20220116012010 48 319 11.0 28.0 0.00 0.00 0.00 50 1019.6
20220116011513 48 298 13.0 28.0 0.00 0.00 0.00 49 1019.5
20220116011006 48 308 11.0 28.0 0.00 0.00 0.00 49 1019.5
20220116010510 48 311 10.0 22.0 0.00 0.00 0.00 50 1019.4
20220116010014 48 283 12.0 27.0 0.00 0.00 0.00 49 1019.4
20220116005518 48 317 12.0 27.0 0.00 0.00 0.00 48 1019.4
20220116005020 48 271 12.0 27.0 0.00 0.00 0.00 49 1019.1
20220116004505 48 249 12.0 27.0 0.00 0.00 0.00 49 1019.1
20220116003945 48 333 9.0 31.0 0.00 0.00 0.00 48 1018.9
20220116003446 49 338 9.0 31.0 0.00 0.00 0.00 51 1018.8
20220116002926 49 283 11.0 31.0 0.00 0.00 0.00 49 1018.9
20220116002428 49 308 14.0 31.0 0.00 0.00 0.00 50 1018.5
20220116001932 49 199 13.0 29.0 0.00 0.00 0.00 48 1018.3
20220116001426 49 314 10.0 25.0 0.00 0.00 0.00 48 1018.4
20220116000931 49 324 8.0 24.0 0.00 0.00 0.00 50 1018.4
20220116000425 49 259 8.0 24.0 0.00 0.00 0.00 49 1018.3
20220115235903 49 300 9.0 24.0 0.00 0.00 0.00 50 1018.2
20220115235351 49 285 10.0 24.0 0.00 0.00 0.00 50 1018.2
20220115234838 49 292 10.0 21.0 0.00 0.00 0.00 50 1017.9
20220115234327 49 319 9.0 19.0 0.00 0.00 0.00 49 1017.8
20220115233821 49 282 9.0 22.0 0.00 0.00 0.00 50 1017.7
20220115233328 50 321 11.0 22.0 0.00 0.00 0.00 51 1017.6
20220115232810 50 231 11.0 26.0 0.00 0.00 0.00 48 1017.5
20220115232305 50 288 11.0 26.0 0.00 0.00 0.00 49 1017.3
20220115231752 50 357 12.0 29.0 0.00 0.00 0.00 46 1017.1
20220115231245 50 281 12.0 29.0 0.00 0.00 0.00 48 1017.1
20220115230748 50 319 12.0 29.0 0.00 0.00 0.00 48 1017.2
20220115230253 50 13 12.0 29.0 0.00 0.00 0.00 47 1017.1
20220115225743 51 327 12.0 25.0 0.00 0.00 0.00 48 1016.9
20220115225244 51 313 12.0 26.0 0.00 0.00 0.00 47 1016.9
20220115224732 52 326 11.0 26.0 0.00 0.00 0.00 48 1016.7
20220115224238 52 261 11.0 26.0 0.00 0.00 0.00 51 1016.8
20220115223717 52 286 12.0 26.0 0.00 0.00 0.00 48 1016.3
20220115223209 52 329 10.0 34.0 0.00 0.00 0.00 48 1016.5
20220115222717 52 285 13.0 34.0 0.00 0.00 0.00 50 1016.3
20220115222218 52 277 16.0 34.0 0.00 0.00 0.00 47 1016.2
20220115221716 52 278 15.0 34.0 0.00 0.00 0.00 48 1016.1
20220115221222 52 274 14.0 26.0 0.00 0.00 0.00 49 1016.0
20220115220710 52 277 12.0 26.0 0.00 0.00 0.00 47 1016.1
20220115220209 53 313 12.0 28.0 0.00 0.00 0.00 47 1016.0
20220115215655 53 320 12.0 28.0 0.00 0.00 0.00 48 1015.9
20220115215156 53 268 12.0 32.0 0.00 0.00 0.00 46 1015.8
20220115214637 53 323 13.0 32.0 0.00 0.00 0.00 50 1016.1
20220115214137 52 275 16.0 32.0 0.00 0.00 0.00 47 1015.9
20220115213624 53 292 15.0 32.0 0.00 0.00 0.00 46 1015.9
20220115213120 53 286 12.0 27.0 0.00 0.00 0.00 47 1015.8
20220115212600 53 290 10.0 25.0 0.00 0.00 0.00 48 1015.8
20220115212055 53 202 10.0 22.0 0.00 0.00 0.00 50 1015.9
20220115211533 53 248 10.0 30.0 0.00 0.00 0.00 49 1015.9
20220115211011 53 340 11.0 30.0 0.00 0.00 0.00 49 1015.6
20220115210452 53 296 11.0 30.0 0.00 0.00 0.00 48 1015.8
20220115205936 54 288 11.0 30.0 0.00 0.00 0.00 49 1015.8
20220115205443 53 248 14.0 30.0 0.00 0.00 0.00 47 1015.8
20220115204948 53 2 15.0 30.0 0.00 0.00 0.00 48 1015.6
20220115204453 53 292 14.0 30.0 0.00 0.00 0.00 48 1015.6
20220115203939 54 300 11.0 30.0 0.00 0.00 0.00 50 1015.4
20220115203439 54 196 10.0 24.0 0.00 0.00 0.00 50 1015.4
20220115202934 54 315 10.0 21.0 0.00 0.00 0.00 50 1015.6
20220115202411 54 312 11.0 21.0 0.00 0.00 0.00 49 1015.5
20220115201903 54 297 10.0 21.0 0.00 0.00 0.00 50 1015.6
20220115201352 54 315 9.0 30.0 0.00 0.00 0.00 51 1015.7
20220115200855 54 304 11.0 30.0 0.00 0.00 0.00 49 1015.7
20220115200341 54 273 12.0 30.0 0.00 0.00 0.00 46 1015.7
20220115195822 54 299 13.0 30.0 0.00 0.00 0.00 46 1015.8
20220115195326 54 332 13.0 29.0 0.00 0.00 0.00 47 1015.8
20220115194831 54 357 14.0 29.0 0.00 0.00 0.00 50 1015.9
20220115194334 54 297 16.0 29.0 0.00 0.00 0.00 50 1015.7
20220115193832 54 279 14.0 26.0 0.00 0.00 0.00 50 1015.9
20220115193324 54 327 11.0 26.0 0.00 0.00 0.00 52 1015.7
20220115192807 54 300 11.0 25.0 0.00 0.00 0.00 53 1015.8
20220115192258 53 275 11.0 28.0 0.00 0.00 0.00 54 1015.9
20220115191802 53 273 11.0 28.0 0.00 0.00 0.00 52 1015.8
20220115191249 53 295 11.0 28.0 0.00 0.00 0.00 52 1015.8
20220115190735 53 282 10.0 28.0 0.00 0.00 0.00 51 1015.8
20220115190218 54 278 10.0 26.0 0.00 0.00 0.00 53 1015.8
20220115185715 54 336 10.0 26.0 0.00 0.00 0.00 52 1015.9
20220115185204 53 250 9.0 24.0 0.00 0.00 0.00 52 1016.0
20220115184707 53 298 10.0 24.0 0.00 0.00 0.00 54 1016.0
20220115184158 53 293 12.0 28.0 0.00 0.00 0.00 54 1016.0
20220115183702 53 302 12.0 28.0 0.00 0.00 0.00 53 1016.2
20220115183208 53 30 13.0 28.0 0.00 0.00 0.00 56 1016.2
20220115182659 53 260 13.0 28.0 0.00 0.00 0.00 58 1016.2
20220115182159 53 294 12.0 25.0 0.00 0.00 0.00 58 1016.1
20220115181703 53 306 11.0 24.0 0.00 0.00 0.00 59 1015.8